[[{"header":{"parameterUnit":"m.s-1","parameterCategory":1,"la1":30.2991,"la2":30.254,"lo1":-89.0895,"lo2":-89.0444,"dy":0.0017,"dx":0.0017,"nx":28,"ny":28,"refTime":"2024-07-16T03:00:00:Z","depth":0,"parameterNumber":2,"parameterNumberName":"U-component_of_WINDS"},"data":[0,0,0,0,0,0,0,0,0,0,0,0,0,0,0,0,0,0,0,0,0,0,0,0,0,0,0,0,0,0,0,0,0,0,0,0,0,0,0,0,0,0,0,0,0,0,0,0,0,0,0,0,0,0,0,0,0,0,1.1342,1.1343,0,1.1442,1.1443,1.1445,1.1495,1.1495,1.1495,1.1495,1.1597,1.1599,1.1602,0,0,0,0,0,0,0,0,0,0,0,0,0,1.1193,1.1195,1.1342,1.1343,1.1345,1.1442,1.1443,1.1445,1.1495,1.1495,1.1495,1.1495,1.1596,1.1599,1.1602,0,0,0,0,0,0,0,0,0,0,0,0,0,1.1272,1.1196,1.1342,1.1381,1.1386,1.1442,1.1444,1.1445,1.1495,1.1495,1.1495,1.1495,1.1595,1.1598,1.1602,1.1627,0,0,1.1615,1.1617,0,0,0,0,0,0,0,0,1.1267,1.1277,1.1374,1.1379,1.1384,1.1456,1.1428,1.1506,1.1495,1.1453,1.1495,1.1495,1.155,1.1557,1.1576,1.1632,1.1636,1.1615,1.1618,1.1619,1.1621,0,0,0,0,0,0,0,1.1262,1.1273,1.1382,1.1376,1.1381,1.1393,1.1405,1.1443,1.15,1.1457,1.1461,1.1472,1.1552,1.1572,1.1579,1.1637,1.1615,1.1619,1.1621,1.1623,1.1717,1.1717,0,0,0,0,0,0,1.125,1.1268,1.1379,1.1385,1.1324,1.1396,1.1409,1.1433,1.15,1.151,1.1472,1.1474,1.1565,1.1574,1.1583,1.1615,1.1619,1.1623,1.1625,1.1717,1.1717,1.1717,0,0,0,0,0,0,1.1246,1.1259,1.1375,1.1328,1.1343,1.1399,1.1425,1.1435,1.1455,1.1511,1.1521,1.1482,1.1566,1.1577,1.1615,1.1619,1.1625,1.1629,1.1717,1.1717,1.1717,1.1681,0,0,0,0,0,0,1.1242,1.1258,1.1268,1.1327,1.1345,1.1406,1.1426,1.1437,1.1462,1.1465,1.1523,1.1533,1.1566,1.1609,1.1619,1.1625,1.1632,1.1717,1.1717,1.1717,1.1682,1.1679,1.1678,0,0,0,0,0,1.1236,1.1254,1.1268,1.1281,1.1359,1.1406,1.1416,1.1455,1.1462,1.1472,1.1508,1.1531,1.1617,1.1613,1.1625,1.1632,1.1717,1.1717,1.1717,1.1683,1.168,1.1678,0,0,0,0,0,0,1.1193,1.1262,1.1279,1.1316,1.1355,1.1414,1.1429,1.1451,1.1488,1.149,1.1536,1.1549,1.1583,1.1611,1.1605,1.1658,1.1669,1.1672,1.1639,1.1637,1.1635,1.1627,1.1635,0,0,0,0,0,1.1188,1.1221,1.1279,1.1306,1.1324,1.1373,1.1395,1.1421,1.1463,1.148,1.1519,1.1558,1.1594,1.1617,1.1653,1.1686,1.1699,1.1697,1.1694,1.1692,1.1694,1.1713,1.1712,1.1718,1.1718,1.1718,0,0,1.1178,1.1219,1.1237,1.1298,1.1331,1.1363,1.1387,1.142,1.1444,1.1485,1.1523,1.1553,1.16,1.1635,1.1653,1.166,1.1695,1.1693,1.1691,1.1694,1.1713,1.1712,1.1712,1.1718,1.1718,1.1718,0,0,1.1175,1.121,1.1236,1.1269,1.1318,1.1351,1.1357,1.1413,1.1434,1.1474,1.1505,1.1534,1.1595,1.1627,1.1651,1.1659,1.1682,1.167,1.1659,1.1677,1.1677,1.1676,1.1679,1.1679,1.1671,1.1671,1.1671,0,1.1156,1.1206,1.1247,1.1278,1.1304,1.1342,1.1368,1.1398,1.1457,1.1473,1.148,1.1557,1.1592,1.1635,1.1637,1.1655,1.1663,1.1664,1.1673,1.1674,1.1674,1.1677,1.1678,1.167,1.167,1.167,1.167,0,1.118,1.1214,1.1229,1.1285,1.1312,1.1341,1.1385,1.1408,1.1431,1.1462,1.1501,1.1544,1.1589,1.1601,1.1625,1.1648,1.165,1.1664,1.1676,1.1671,1.1675,1.1676,1.1667,1.1668,1.1668,1.1669,0,0,1.1154,1.1231,1.1236,1.1262,1.1319,1.1345,1.1375,1.142,1.1438,1.1477,1.1503,1.1553,1.1566,1.1594,1.1621,1.1636,1.164,1.1649,1.1651,1.1646,1.1667,1.1656,1.1657,1.1654,1.1655,1.1655,1.1663,0,1.1159,1.1215,1.1252,1.1293,1.1325,1.1361,1.1387,1.1424,1.1454,1.1484,1.1517,1.1552,1.1567,1.1584,1.1601,1.1636,1.1645,1.1636,1.1679,1.168,1.1666,1.1659,1.1647,1.1653,1.1665,1.1665,1.1665,0,1.1174,1.1211,1.1256,1.1308,1.1323,1.1346,1.1389,1.1418,1.1461,1.1481,1.1511,1.1538,1.1571,1.1579,1.1624,1.1617,1.1637,1.1657,1.1658,1.1664,1.1672,1.1664,1.1655,1.1656,1.1668,1.1668,1.1667,0,1.115,1.1212,1.1246,1.1267,1.1329,1.1344,1.1371,1.1414,1.1438,1.1475,1.1491,1.1532,1.1554,1.1584,1.1622,1.1625,1.1663,1.1675,1.168,1.1679,1.1687,1.1686,1.1681,1.1699,1.1699,1.1699,1.1699,0,1.1153,1.1178,1.1236,1.1257,1.1287,1.1329,1.1356,1.1386,1.1423,1.145,1.1484,1.1508,1.1556,1.1587,1.1616,1.1648,1.1658,1.1675,1.1683,1.1673,1.167,1.1686,1.1687,1.17,1.17,1.17,1.17,0,1.1132,1.1172,1.1211,1.1267,1.1282,1.1301,1.1348,1.137,1.14,1.1434,1.1444,1.1493,1.153,1.157,1.1621,1.1641,1.1671,1.1682,1.1657,1.1661,1.1665,1.1664,1.167,1.1673,1.1689,1.1688,1.1688,0,1.1131,1.1151,1.1209,1.1229,1.1255,1.1288,1.1312,1.1354,1.1378,1.1427,1.1442,1.1482,1.1516,1.1574,1.1613,1.1652,1.1664,1.1663,1.167,1.1658,1.1664,1.1662,1.1664,1.1661,1.1661,1.1661,1.166,0,1.1125,1.1143,1.1178,1.1218,1.1246,1.128,1.1316,1.133,1.1379,1.1404,1.1442,1.1468,1.152,1.1559,1.1602,1.1629,1.1653,1.1658,1.1661,1.1651,1.1635,1.1643,1.1651,1.1658,1.1658,1.1658,1.1658,1.1658,1.1114,1.1134,1.1177,1.1213,1.1244,1.1276,1.1299,1.1332,1.1365,1.141,1.1432,1.147,1.1512,1.1572,1.1599,1.1629,1.1636,1.1641,1.1642,1.1643,1.164,1.163,1.1637,1.1637,1.1637,1.1637,1.1637,0,1.111,1.1139,1.1172,1.122,1.1249,1.1268,1.1308,1.133,1.1363,1.14,1.1433,1.1476,1.1513,1.1555,1.1595,1.1611,1.1623,1.162,1.162,1.1625,1.1631,1.1624,1.161,1.161,1.161,1.161,1.161,1.161,1.1111,1.1145,1.1168,1.1217,1.1246,1.1284,1.1305,1.1334,1.1364,1.1411,1.1442,1.1469,1.1507,1.155,1.1585,1.1597,1.161,1.1604,1.1618,1.1623,1.1625,1.1627,1.1621,1.1606,1.1606,1.161,1.161,1.161]},{"header":{"parameterUnit":"m.s-1","parameterCategory":1,"la1":30.2991,"la2":30.254,"lo1":-89.0895,"lo2":-89.0444,"dy":0.0017,"dx":0.0017,"nx":28,"ny":28,"refTime":"2024-07-16T03:00:00:Z","depth":0,"parameterNumber":3,"parameterNumberName":"V-component_of_WINDS"},"data":[0,0,0,0,0,0,0,0,0,0,0,0,0,0,0,0,0,0,0,0,0,0,0,0,0,0,0,0,0,0,0,0,0,0,0,0,0,0,0,0,0,0,0,0,0,0,0,0,0,0,0,0,0,0,0,0,0,0,5.1165,5.1165,0,5.1186,5.1186,5.1186,5.1136,5.1134,5.1133,5.1131,5.1149,5.1151,5.1153,0,0,0,0,0,0,0,0,0,0,0,0,0,5.1078,5.108,5.1165,5.1165,5.1165,5.1186,5.1186,5.1186,5.1136,5.1134,5.1132,5.1131,5.1148,5.1151,5.1153,0,0,0,0,0,0,0,0,0,0,0,0,0,5.1109,5.1081,5.1165,5.1143,5.1141,5.1186,5.1186,5.1186,5.1137,5.1134,5.1132,5.113,5.1148,5.1151,5.1153,5.1219,0,0,5.1162,5.1164,0,0,0,0,0,0,0,0,5.1108,5.1112,5.1146,5.1145,5.1143,5.1156,5.1162,5.1197,5.1137,5.1138,5.1131,5.1129,5.1153,5.1155,5.1164,5.1219,5.122,5.1163,5.1164,5.1166,5.1166,0,0,0,0,0,0,0,5.1105,5.1111,5.1173,5.1146,5.1144,5.1131,5.1133,5.1168,5.1159,5.1138,5.1134,5.1138,5.1152,5.1162,5.1164,5.122,5.1162,5.1165,5.1167,5.1168,5.1331,5.1333,0,0,0,0,0,0,5.1107,5.111,5.1172,5.1173,5.1119,5.1135,5.1137,5.1154,5.1158,5.1156,5.114,5.1135,5.1158,5.1161,5.1165,5.1242,5.1166,5.1168,5.117,5.1328,5.1331,5.1334,0,0,0,0,0,0,5.1105,5.1113,5.1171,5.1141,5.1147,5.1139,5.1159,5.1156,5.1166,5.116,5.1157,5.1152,5.1156,5.1161,5.1206,5.1242,5.117,5.1172,5.1325,5.1329,5.1333,5.1396,0,0,0,0,0,0,5.1103,5.1112,5.1138,5.1142,5.1149,5.1213,5.1161,5.1158,5.1171,5.1166,5.117,5.1169,5.1155,5.1202,5.1209,5.1244,5.1174,5.1322,5.1327,5.1332,5.1391,5.1402,5.1411,0,0,0,0,0,5.11,5.1154,5.1139,5.1147,5.1181,5.1215,5.1219,5.1203,5.1174,5.1199,5.1196,5.1169,5.1237,5.1207,5.1214,5.1251,5.132,5.1326,5.1331,5.1386,5.14,5.1411,0,0,0,0,0,0,5.1152,5.1154,5.1138,5.1195,5.1206,5.1207,5.1238,5.1218,5.1236,5.123,5.1207,5.1209,5.1258,5.1259,5.1226,5.1315,5.1273,5.1281,5.1313,5.1325,5.1335,5.1333,5.1177,0,0,0,0,0,5.1171,5.12,5.1199,5.125,5.1256,5.1246,5.1261,5.1248,5.1257,5.1261,5.126,5.127,5.1294,5.1309,5.1331,5.1391,5.1391,5.142,5.143,5.1439,5.1445,5.1477,5.149,5.1353,5.1353,5.1353,0,0,5.1208,5.1213,5.1232,5.126,5.1267,5.1297,5.125,5.1284,5.1305,5.1266,5.1309,5.1309,5.1318,5.1372,5.1395,5.1374,5.1483,5.1446,5.1453,5.1455,5.1485,5.1498,5.1509,5.1357,5.1356,5.1356,0,0,5.1293,5.1299,5.1342,5.1351,5.1362,5.1356,5.1366,5.1371,5.137,5.1414,5.1385,5.141,5.1451,5.1459,5.1468,5.1558,5.1534,5.1565,5.1618,5.1649,5.166,5.167,5.1701,5.1713,5.1572,5.1572,5.1572,0,5.1338,5.1383,5.1367,5.1403,5.1416,5.1383,5.1426,5.1435,5.1452,5.1461,5.1438,5.149,5.1493,5.1548,5.157,5.1579,5.159,5.1564,5.166,5.1669,5.1678,5.1708,5.172,5.1576,5.1575,5.1575,5.1575,0,5.1438,5.147,5.1503,5.1523,5.1539,5.1579,5.1568,5.1586,5.1572,5.1568,5.1613,5.1617,5.1638,5.1651,5.1636,5.1704,5.169,5.1664,5.1621,5.1695,5.1723,5.1734,5.1581,5.158,5.1579,5.1578,0,0,5.1554,5.1566,5.1578,5.1587,5.1599,5.1622,5.166,5.1683,5.17,5.1713,5.1744,5.178,5.1757,5.1767,5.1754,5.1782,5.1852,5.1752,5.1752,5.177,5.1927,5.1947,5.196,5.1837,5.1839,5.1841,5.1926,0,5.1637,5.1704,5.1691,5.1756,5.1785,5.1755,5.1788,5.1798,5.1796,5.1819,5.1816,5.1842,5.1809,5.1815,5.1842,5.1838,5.1884,5.1832,5.1865,5.1866,5.1863,5.1975,5.1995,5.2076,5.1937,5.1939,5.194,0,5.1743,5.1763,5.1831,5.1839,5.185,5.1881,5.1901,5.1924,5.1935,5.1931,5.1945,5.1926,5.1963,5.1921,5.1971,5.1936,5.1949,5.195,5.1952,5.1954,5.1907,5.1979,5.2101,5.2113,5.1957,5.1956,5.1955,0,5.1821,5.1864,5.1911,5.1919,5.193,5.1952,5.1957,5.1965,5.1981,5.1998,5.2008,5.2029,5.204,5.2057,5.2044,5.2015,5.2097,5.2053,5.2094,5.2094,5.2112,5.2111,5.2237,5.2121,5.2121,5.212,5.212,0,5.1915,5.1958,5.1946,5.1975,5.2022,5.2007,5.2053,5.2055,5.2063,5.2091,5.2066,5.2092,5.2074,5.2099,5.2089,5.2133,5.2138,5.2135,5.2132,5.2137,5.2138,5.2145,5.2139,5.2124,5.2123,5.2122,5.2122,0,5.2009,5.2003,5.2052,5.2059,5.2062,5.2096,5.2101,5.2128,5.2124,5.2159,5.2167,5.2161,5.2188,5.2178,5.2207,5.22,5.2256,5.2245,5.2253,5.225,5.2291,5.2287,5.2425,5.2443,5.2316,5.2317,5.2318,0,5.2069,5.2102,5.2113,5.2131,5.2138,5.2167,5.2183,5.2169,5.2186,5.2202,5.2227,5.2253,5.2273,5.2319,5.2316,5.2338,5.2328,5.2375,5.2331,5.2335,5.2328,5.2326,5.2329,5.2383,5.2385,5.2386,5.2387,0,5.2177,5.2173,5.2197,5.2222,5.2242,5.226,5.2275,5.2291,5.2278,5.2299,5.2328,5.2344,5.2375,5.2401,5.2421,5.2425,5.2404,5.2401,5.2412,5.2417,5.242,5.2419,5.2276,5.2398,5.2397,5.2396,5.2395,5.2395,5.2255,5.2283,5.2296,5.2325,5.2336,5.2351,5.2377,5.2377,5.2402,5.2427,5.2417,5.2451,5.2461,5.2487,5.2494,5.2519,5.2501,5.2516,5.2519,5.2523,5.2529,5.2417,5.2523,5.2522,5.2522,5.2522,5.2522,0,5.2361,5.2369,5.2395,5.2419,5.2442,5.2422,5.2439,5.2458,5.2489,5.2501,5.2522,5.2556,5.2581,5.2582,5.2605,5.2626,5.2616,5.2632,5.263,5.2631,5.2544,5.2532,5.2639,5.2639,5.2639,5.2639,5.2639,5.2639,5.2419,5.2466,5.2464,5.2515,5.2522,5.2556,5.2567,5.2581,5.2591,5.2631,5.2653,5.2653,5.2661,5.2685,5.2707,5.2706,5.2716,5.2735,5.2731,5.2649,5.2637,5.2626,5.2615,5.2738,5.2738,5.2816,5.2817,5.2817]}]]